Wind_Speed
53 54 52 51 48 44 40 34 33 33 33 37 35 30 26 25 24 24 22 21 21 19 17 16 15 14 14 15 16 16 15 14 14 11 10 9 9 7 8 9 12 16 18
55 53 53 51 50 47 44 38 35 34 34 36 37 35 31 29 26 24 24 24 24 22 21 21 19 17 17 16 16 15 14 13 14 13 12 11 11 9 7 7 8 15 17
53 53 53 52 52 50 47 42 39 37 37 38 39 40 37 35 33 29 27 26 25 23 22 23 22 21 20 19 18 17 16 16 15 16 15 14 12 11 12 14 17 20 22
50 51 51 52 51 50 47 46 43 40 39 41 42 42 40 38 37 33 30 30 28 26 25 25 25 26 23 21 20 19 18 18 18 19 18 17 15 15 16 19 21 21 22
47 49 52 51 50 49 50 49 46 44 43 42 44 45 45 44 42 38 35 33 31 29 28 28 29 28 26 23 22 20 18 19 19 20 20 20 20 17 17 18 22 23 25
45 46 48 50 50 50 50 51 48 47 46 45 45 48 49 49 47 43 40 37 34 32 31 29 33 32 28 26 25 22 22 20 20 21 22 22 21 19 20 19 21 24 27
46 46 47 48 49 48 49 50 52 51 49 49 48 49 51 51 50 46 42 39 38 36 33 33 38 33 25 25 26 25 24 23 23 22 22 24 24 22 21 23 24 27 24
48 47 49 48 48 46 45 48 49 52 53 51 51 52 51 51 51 50 46 42 43 38 34 33 33 25 24 25 26 26 23 21 24 24 22 23 25 24 25 24 26 23 20
46 47 46 47 48 48 48 46 48 50 53 55 54 54 54 53 50 47 42 44 45 40 34 29 22 24 23 26 27 24 21 20 21 22 22 22 23 25 19 24 20 18 19
47 46 47 48 49 49 47 45 46 47 50 52 55 56 55 52 50 44 40 43 43 38 31 30 25 15 22 22 22 19 19 19 20 19 16 13 13 15 17 17 15 17 17
45 45 44 45 46 46 46 44 43 44 46 49 52 54 56 52 49 43 41 41 39 32 33 27 24 19 21 20 18 18 16 17 18 19 15 13 12 12 12 13 12 10 9
39 39 36 36 37 41 42 41 39 38 43 46 49 49 51 46 38 38 36 33 32 31 19 16 19 16 18 18 20 17 16 18 16 14 14 12 9 8 9 9 8 8 9
30 32 31 33 36 37 37 37 39 37 36 37 39 43 46 46 39 36 40 39 32 24 14 16 24 21 18 19 17 15 16 15 15 14 12 10 9 8 11 11 10 10 11
20 21 24 29 29 29 29 30 30 30 29 29 33 37 40 38 40 40 43 35 34 28 28 25 25 19 16 15 17 17 18 17 14 13 13 12 10 11 13 13 12 13 13
14 14 14 17 22 24 25 27 23 24 27 29 33 29 27 30 32 29 36 42 29 25 24 19 27 21 19 18 18 19 19 17 16 15 15 13 13 13 12 12 13 13 15
3 4 5 10 14 16 19 17 15 16 22 30 25 16 13 11 20 26 12 4 24 23 27 24 24 22 22 20 20 21 17 15 14 16 16 14 14 13 13 13 13 13 12
2 3 3 4 8 15 20 20 25 30 22 20 7 12 11 32 16 11 10 22 29 27 30 28 25 24 23 22 21 18 15 13 14 15 16 16 15 15 14 12 13 12 8
4 5 5 6 8 15 23 24 23 22 21 15 22 17 20 12 17 19 16 35 36 32 26 25 23 24 22 20 19 16 14 15 14 15 16 14 13 14 12 12 10 7 9
1 3 9 13 12 13 16 17 17 18 26 20 13 14 15 19 24 22 30 33 28 24 23 21 20 19 18 17 15 15 15 13 14 15 16 14 14 12 11 8 7 7 8
5 4 3 6 13 14 10 11 13 10 15 11 11 19 19 23 32 31 26 21 19 19 19 18 18 16 15 14 15 15 15 15 16 15 15 14 13 10 9 7 5 5 5
18 16 13 13 11 10 10 10 9 12 9 12 16 18 27 30 27 25 23 21 20 20 19 17 16 14 13 13 14 14 15 15 15 14 14 14 13 11 9 5 3 3 6
10 9 7 10 12 13 12 12 9 8 10 14 19 24 24 22 22 21 20 20 19 16 14 15 13 11 9 8 11 13 15 14 13 13 13 14 13 12 8 4 3 3 4
6 8 11 14 15 16 16 17 14 12 17 21 24 25 25 22 21 21 21 20 20 19 18 14 11 11 7 6 9 11 13 12 11 12 14 15 14 11 6 4 3 3 3
2 4 8 14 15 12 11 15 17 18 21 23 24 24 24 24 22 21 21 21 21 19 17 16 13 9 6 7 7 9 10 10 13 14 14 14 12 7 5 5 4 3 3
3 2 6 10 13 13 10 9 11 14 17 19 20 20 20 23 23 22 21 21 20 20 18 17 15 10 10 8 7 6 4 8 10 13 13 12 10 7 6 6 4 3 2
4 6 8 7 7 12 3 1 5 6 10 16 18 19 20 22 23 24 24 23 21 19 17 16 17 16 15 10 6 3 4 3 6 9 9 8 8 7 7 7 6 4 3
Wind_Direction
238 239 239 237 237 237 235 235 237 235 230 229 231 231 233 231 232 228 228 231 236 237 241 248 251 250 251 249 251 252 251 260 272 268 274 278 279 284 280 278 284 292 295
238 239 240 241 239 238 236 235 237 238 234 230 230 230 229 226 224 225 225 228 234 236 239 244 249 249 251 251 249 253 250 251 258 262 267 273 276 266 269 278 300 320 309
238 239 240 240 239 238 238 235 235 238 236 233 230 231 228 228 226 227 229 232 236 242 246 248 249 249 251 251 251 254 256 261 265 263 265 270 270 263 272 275 294 314 323
239 239 239 240 240 238 238 236 234 236 237 236 233 231 231 231 230 231 233 236 238 242 248 253 254 250 252 254 253 254 257 260 266 268 262 263 262 266 266 274 286 298 309
239 239 242 242 241 240 235 236 237 236 238 240 238 236 235 236 236 235 237 241 244 246 248 253 257 256 254 255 255 254 252 260 265 267 266 266 266 275 282 285 288 301 309
239 243 243 241 241 240 238 234 235 238 238 240 242 240 240 241 241 241 241 245 248 247 249 257 256 253 253 254 254 254 255 256 260 267 266 266 272 279 282 284 287 294 298
237 239 240 239 240 240 238 237 233 235 239 240 241 242 242 243 244 243 241 244 247 247 251 256 258 255 259 258 252 250 251 250 254 261 261 262 266 270 279 281 280 288 291
239 237 237 239 240 240 238 238 236 234 236 239 243 244 244 245 245 246 244 245 249 248 251 255 257 258 254 249 248 251 253 252 254 257 267 265 264 265 278 277 280 287 289
240 239 240 242 242 239 238 239 239 236 236 238 241 244 246 247 247 248 245 243 246 247 246 248 245 249 255 249 227 243 247 248 259 264 275 278 263 263 269 278 280 283 290
244 247 246 246 245 241 243 243 242 241 242 242 243 245 247 248 249 247 243 239 241 241 239 234 226 242 245 232 229 231 241 251 256 261 283 263 251 263 273 274 281 285 291
253 247 246 245 245 246 245 245 245 245 245 244 246 247 249 247 247 243 240 234 232 227 228 231 228 222 221 216 224 232 244 253 255 262 242 245 255 260 265 277 283 280 288
243 240 241 244 247 245 244 245 251 247 251 248 246 245 249 250 246 238 233 231 226 223 212 242 234 211 206 214 227 229 246 249 241 227 232 235 243 246 261 273 276 268 291
239 246 251 253 252 248 247 247 249 243 238 236 233 239 242 243 237 223 217 208 211 196 213 229 227 220 219 221 221 226 230 226 211 221 232 220 223 249 259 260 267 277 300
268 268 266 262 258 253 251 249 245 247 243 239 240 236 236 247 244 221 209 193 185 182 189 198 219 218 221 223 226 224 212 211 219 230 212 211 231 253 261 264 269 282 297
260 262 262 255 253 251 250 246 241 240 240 239 237 225 221 223 229 226 201 161 177 197 214 204 206 210 214 214 220 213 203 209 222 217 211 220 238 253 256 268 279 282 294
278 267 262 253 249 240 221 210 208 200 197 215 188 146 81 100 150 144 170 333 218 203 212 201 199 214 212 215 210 206 204 202 211 214 221 233 247 254 262 270 272 279 292
121 154 192 207 210 210 207 186 167 140 134 129 151 322 346 324 212 295 221 189 221 216 210 203 206 211 209 197 202 204 197 204 215 225 232 242 245 252 262 264 269 276 288
31 82 123 155 186 191 185 174 181 190 201 269 296 284 299 278 204 180 172 209 212 210 207 200 199 191 188 193 193 197 207 219 222 228 234 241 246 254 254 270 256 273 305
71 148 141 147 151 173 188 195 210 238 247 238 229 235 225 221 212 216 208 206 205 195 192 186 184 182 184 189 199 205 204 209 220 231 239 239 240 245 256 238 254 297 316
110 115 149 183 169 177 195 213 220 224 233 202 176 177 159 196 201 185 187 184 176 183 183 183 177 180 184 195 199 198 209 220 229 233 234 236 246 239 230 235 274 304 320
107 105 116 143 149 149 142 156 178 181 168 157 157 164 175 175 173 170 171 175 177 177 174 176 175 176 184 194 209 218 223 227 230 234 236 230 219 219 228 254 268 292 322
115 125 136 137 135 150 167 179 185 198 198 187 180 173 168 166 167 172 174 171 168 167 169 176 171 168 181 200 217 219 224 222 217 218 216 208 208 219 237 262 233 285 318
104 106 118 130 139 143 143 133 131 157 175 163 160 159 162 166 168 170 167 164 160 159 159 154 154 166 164 178 189 199 208 208 212 214 207 202 210 225 241 222 230 276 303
107 117 130 135 140 154 166 162 165 167 168 170 171 171 170 167 165 166 166 164 161 161 160 173 176 174 162 148 156 184 198 206 213 207 200 206 217 234 231 218 234 272 313
32 78 217 210 202 193 168 171 180 182 186 186 186 186 184 177 173 172 168 169 172 179 184 190 192 185 164 143 117 120 169 205 202 195 199 213 225 223 218 218 235 276 285
203 218 210 180 161 147 28 94 92 164 200 183 188 196 194 193 197 191 189 188 188 188 191 199 201 199 190 193 182 133 90 127 177 189 194 203 219 226 229 226 225 240 251
Height
1484 1490 1496 1502 1508 1515 1518 1522 1526 1530 1534 1537 1542 1544 1546 1549 1552 1554 1556 1559 1560 1562 1564 1565 1566 1566 1567 1567 1567 1569 1570 1570 1572 1573 1573 1574 1575 1576 1576 1576 1576 1576 1575
1474 1480 1485 1492 1499 1504 1510 1515 1519 1522 1527 1530 1534 1537 1540 1543 1545 1547 1549 1552 1554 1557 1559 1560 1562 1563 1563 1563 1564 1565 1566 1567 1567 1569 1570 1571 1571 1572 1573 1573 1572 1572 1570
1465 1471 1477 1482 1487 1494 1500 1506 1510 1514 1518 1522 1525 1529 1532 1535 1538 1541 1543 1546 1549 1552 1554 1556 1557 1558 1558 1559 1560 1562 1563 1564 1564 1565 1567 1569 1569 1569 1569 1568 1568 1566 1564
1455 1460 1465 1470 1475 1482 1490 1495 1499 1505 1509 1512 1515 1520 1524 1528 1531 1534 1537 1540 1543 1547 1550 1550 1551 1552 1553 1556 1557 1559 1561 1562 1562 1562 1562 1564 1565 1565 1565 1564 1563 1561 1560
1445 1450 1452 1458 1465 1471 1478 1485 1491 1494 1499 1503 1508 1512 1516 1519 1522 1526 1529 1533 1537 1541 1543 1544 1547 1549 1551 1552 1553 1554 1556 1558 1560 1560 1560 1559 1559 1559 1560 1559 1558 1556 1553
1434 1437 1442 1448 1454 1460 1466 1473 1480 1484 1489 1494 1497 1502 1505 1508 1512 1518 1523 1526 1529 1532 1534 1536 1535 1538 1543 1547 1547 1549 1551 1550 1552 1554 1555 1555 1555 1555 1553 1554 1552 1551 1547
1423 1428 1432 1436 1441 1447 1455 1462 1467 1472 1477 1481 1486 1490 1493 1498 1502 1507 1513 1517 1519 1522 1525 1525 1527 1529 1535 1539 1540 1540 1541 1544 1545 1547 1548 1548 1549 1549 1549 1547 1547 1545 1543
1413 1418 1423 1428 1433 1438 1444 1448 1454 1460 1465 1469 1473 1477 1482 1484 1489 1495 1504 1509 1509 1512 1515 1516 1519 1522 1523 1525 1529 1533 1535 1537 1539 1539 1541 1542 1542 1543 1542 1540 1538 1538 1537
1407 1412 1417 1420 1424 1429 1432 1436 1442 1448 1452 1456 1461 1465 1469 1474 1480 1486 1495 1498 1499 1502 1504 1506 1509 1513 1517 1518 1516 1525 1529 1531 1535 1537 1535 1534 1535 1536 1536 1536 1534 1532 1531
1398 1400 1404 1408 1413 1416 1421 1426 1431 1435 1441 1446 1450 1453 1458 1464 1470 1476 1482 1483 1487 1494 1498 1497 1499 1499 1509 1513 1513 1516 1521 1525 1528 1529 1529 1528 1529 1531 1532 1532 1530 1529 1526
1389 1393 1397 1400 1404 1409 1415 1419 1422 1429 1433 1434 1437 1443 1445 1450 1455 1464 1470 1473 1477 1483 1486 1494 1494 1487 1493 1503 1510 1513 1515 1519 1521 1521 1522 1523 1525 1526 1529 1529 1527 1525 1522
1384 1387 1390 1393 1397 1401 1404 1410 1413 1414 1421 1425 1428 1431 1435 1440 1445 1451 1459 1469 1475 1477 1478 1493 1496 1491 1491 1495 1502 1505 1509 1512 1513 1515 1517 1518 1521 1524 1526 1526 1524 1522 1519
1382 1387 1389 1395 1398 1398 1398 1402 1410 1412 1412 1419 1423 1425 1425 1427 1430 1435 1444 1443 1463 1466 1468 1478 1488 1488 1490 1490 1495 1498 1502 1506 1508 1510 1513 1514 1516 1518 1522 1522 1520 1518 1515
1378 1381 1385 1388 1393 1396 1399 1402 1405 1409 1414 1419 1424 1424 1426 1430 1430 1433 1432 1436 1440 1456 1465 1467 1476 1481 1485 1490 1492 1493 1496 1501 1503 1506 1506 1509 1512 1514 1519 1519 1517 1514 1511
1371 1374 1377 1380 1383 1388 1393 1397 1400 1402 1408 1412 1416 1419 1420 1425 1427 1427 1415 1399 1444 1460 1462 1447 1461 1473 1477 1481 1487 1492 1491 1494 1499 1501 1503 1505 1507 1509 1513 1513 1511 1509 1508
1369 1371 1374 1377 1380 1384 1388 1392 1395 1396 1398 1403 1408 1412 1426 1426 1419 1416 1421 1431 1452 1446 1454 1457 1461 1468 1473 1477 1481 1490 1486 1489 1494 1498 1501 1501 1503 1506 1507 1507 1506 1505 1502
1368 1370 1373 1376 1379 1382 1386 1388 1390 1393 1396 1398 1402 1405 1412 1425 1433 1418 1427 1438 1451 1444 1450 1449 1459 1464 1471 1474 1478 1484 1484 1486 1492 1497 1499 1499 1498 1501 1502 1502 1502 1498 1495
1367 1369 1372 1375 1378 1380 1383 1386 1389 1390 1391 1392 1392 1391 1389 1406 1423 1423 1413 1441 1444 1447 1448 1450 1456 1462 1465 1470 1474 1480 1482 1485 1489 1494 1494 1494 1492 1497 1497 1497 1498 1493 1491
1369 1371 1373 1375 1378 1380 1384 1387 1390 1391 1391 1387 1384 1385 1387 1405 1422 1423 1423 1433 1437 1442 1450 1452 1455 1458 1462 1467 1472 1477 1480 1481 1486 1489 1491 1488 1488 1490 1493 1493 1492 1489 1487
1371 1372 1374 1376 1378 1382 1384 1386 1387 1385 1389 1387 1384 1390 1389 1408 1417 1422 1429 1433 1434 1443 1450 1454 1454 1458 1460 1466 1470 1472 1475 1479 1482 1484 1487 1485 1487 1487 1488 1487 1484 1484 1484
1372 1375 1377 1380 1379 1382 1384 1386 1389 1390 1390 1388 1392 1396 1405 1412 1418 1424 1431 1437 1440 1444 1450 1455 1456 1458 1460 1463 1467 1469 1471 1476 1479 1480 1480 1481 1482 1483 1485 1481 1479 1480 1481
1380 1381 1382 1383 1383 1387 1390 1391 1392 1392 1394 1395 1397 1402 1410 1416 1422 1427 1433 1437 1440 1446 1449 1452 1454 1455 1458 1461 1465 1467 1471 1472 1472 1475 1476 1478 1478 1480 1479 1476 1476 1477 1477
1384 1386 1384 1384 1386 1389 1393 1392 1393 1396 1399 1401 1403 1407 1411 1417 1423 1428 1431 1434 1438 1443 1449 1451 1452 1456 1456 1458 1461 1464 1467 1466 1467 1470 1472 1472 1473 1474 1471 1471 1474 1474 1475
1388 1387 1389 1391 1393 1394 1395 1396 1396 1396 1400 1405 1407 1410 1414 1419 1423 1427 1431 1435 1438 1442 1443 1450 1454 1455 1456 1457 1459 1462 1463 1462 1463 1466 1468 1468 1468 1468 1466 1467 1469 1471 1472
1390 1390 1394 1395 1396 1396 1396 1399 1400 1402 1404 1407 1410 1412 1416 1419 1423 1427 1430 1434 1438 1442 1446 1450 1453 1453 1455 1457 1459 1460 1460 1459 1460 1462 1463 1463 1463 1463 1463 1465 1466 1468 1470
1393 1393 1394 1395 1397 1397 1397 1400 1401 1402 1405 1407 1410 1413 1416 1420 1424 1426 1430 1434 1437 1440 1444 1447 1449 1454 1455 1457 1458 1460 1460 1457 1457 1457 1457 1457 1459 1459 1461 1462 1464 1465 1466